EW7168 Weather Reports


time (UTC)temp
F
wind
direction
speed
knots
gust
knots
rain 1hr
in
rain 24hr
in
rain mn
in
humidity
%
barometer
mb
20220629040110 77 231 1.7 5.2 0.00 0.00 0.00 25 1022.6
20220629034607 77 200 1.7 3.5 0.00 0.00 0.00 26 1022.4
20220629033104 78 214 0.9 3.5 0.00 0.00 0.00 25 1022.4
20220629031601 79 203 1.7 6.1 0.00 0.00 0.00 25 1022.4
20220629030059 79 240 2.6 7.0 0.00 0.00 0.00 24 1022.3
20220629024602 80 202 1.7 4.3 0.00 0.00 0.00 24 1021.7
20220629023102 81 196 1.7 3.5 0.00 0.00 0.00 24 1021.5
20220629021606 82 227 1.7 7.0 0.00 0.00 0.00 22 1021.4
20220629020112 83 288 1.7 7.0 0.00 0.00 0.00 21 1021.3
20220629014602 84 0 1.7 5.2 0.00 0.00 0.00 21 1021.4
20220629013105 85 264 1.7 3.5 0.00 0.00 0.00 21 1021.4
20220629011605 86 274 0.9 5.2 0.00 0.00 0.00 20 1021.5
20220629010108 87 252 1.7 7.0 0.00 0.00 0.00 19 1021.5
20220629004609 89 269 0.9 5.2 0.00 0.00 0.00 18 1021.5
20220629003109 90 0 0.0 2.6 0.00 0.00 0.00 19 1021.6
20220629001607 90 0 0.0 2.6 0.00 0.00 0.00 15 1021.6
20220629000105 89 0 0.9 4.3 0.00 0.00 0.00 14 1021.6
20220628234602 91 0 1.7 5.2 0.00 0.00 0.00 14 1021.7
20220628233105 92 133 2.6 7.8 0.00 0.00 0.00 14 1021.9
20220628231602 93 227 0.9 3.5 0.00 0.00 0.00 13 1022.0
20220628230108 92 0 0.0 5.2 0.00 0.00 0.00 15 1022.1
20220628224606 92 250 0.9 6.1 0.00 0.00 0.00 13 1022.3
20220628223106 91 198 2.6 9.6 0.00 0.00 0.00 15 1022.5
20220628221610 92 271 1.7 7.0 0.00 0.00 0.00 15 1022.7
20220628220104 92 204 3.5 9.6 0.00 0.00 0.00 15 1022.7
20220628214602 90 352 1.7 5.2 0.00 0.00 0.00 15 1022.9
20220628213108 90 269 1.7 7.0 0.00 0.00 0.00 16 1023.0
20220628211603 90 211 0.9 6.1 0.00 0.00 0.00 15 1023.2
20220628210108 91 115 0.9 8.7 0.00 0.00 0.00 15 1023.1
20220628204609 93 352 1.7 6.1 0.00 0.00 0.00 12 1023.2
20220628203107 92 250 1.7 6.1 0.00 0.00 0.00 13 1023.3
20220628201602 91 61 2.6 7.8 0.00 0.00 0.00 15 1023.5
20220628200106 89 37 3.5 9.6 0.00 0.00 0.00 17 1023.5
20220628194606 88 80 4.3 11.3 0.00 0.00 0.00 14 1023.8
20220628193121 90 84 3.5 8.7 0.00 0.00 0.00 15 1023.8
20220628191605 90 71 5.2 14.8 0.00 0.00 0.00 15 1024.1
20220628190104 89 117 0.9 9.6 0.00 0.00 0.00 15 1024.3
20220628184608 90 153 3.5 7.0 0.00 0.00 0.00 16 1024.5
20220628183107 88 119 3.5 7.8 0.00 0.00 0.00 16 1024.6
20220628181609 88 32 3.5 7.8 0.00 0.00 0.00 15 1024.6
20220628180114 87 88 4.3 8.7 0.00 0.00 0.00 19 1024.7
20220628174604 87 247 1.7 5.2 0.00 0.00 0.00 20 1024.7
20220628173107 86 107 2.6 7.8 0.00 0.00 0.00 20 1024.8
20220628171603 85 134 0.9 7.0 0.00 0.00 0.00 23 1024.9
20220628170109 84 89 1.7 7.8 0.00 0.00 0.00 23 1024.8
20220628164607 85 84 1.7 4.3 0.00 0.00 0.00 26 1025.0
20220628163110 84 85 2.6 6.1 0.00 0.00 0.00 25 1024.9
20220628161610 83 86 0.9 3.5 0.00 0.00 0.00 27 1025.0
20220628160111 82 80 1.7 3.5 0.00 0.00 0.00 29 1024.9
20220628154614 81 67 0.9 3.5 0.00 0.00 0.00 32 1025.1
20220628153107 79 140 0.9 5.2 0.00 0.00 0.00 32 1025.1
20220628151611 78 134 0.0 3.5 0.00 0.00 0.00 35 1025.2
20220628150113 75 169 0.9 3.5 0.00 0.00 0.00 34 1025.3
20220628144607 74 219 0.9 3.5 0.00 0.00 0.00 38 1025.3
20220628143109 74 196 0.0 2.6 0.00 0.00 0.00 37 1025.5
20220628141610 72 205 0.9 3.5 0.00 0.00 0.00 37 1025.6
20220628140112 70 173 0.0 2.6 0.00 0.00 0.00 42 1025.9
20220628134608 69 196 0.9 2.6 0.00 0.00 0.00 44 1025.8
20220628133108 67 188 0.0 1.7 0.00 0.00 0.00 44 1025.8
20220628131608 64 0 0.9 2.6 0.00 0.00 0.00 46 1025.7
20220628130112 62 0 0.0 2.6 0.00 0.00 0.00 51 1025.7
20220628124610 60 0 0.0 2.6 0.00 0.00 0.00 55 1025.7
20220628123107 59 0 0.9 2.6 0.00 0.00 0.00 55 1025.7
20220628121600 57 0 0.0 1.7 0.00 0.00 0.00 59 1025.7
20220628120109 56 0 0.0 1.7 0.00 0.00 0.00 60 1025.8
20220628114606 56 0 0.0 1.7 0.00 0.00 0.00 64 1025.8
20220628113135 56 0 0.0 0.0 0.00 0.00 0.00 63 1025.7
20220628111604 56 0 0.0 1.7 0.00 0.00 0.00 61 1025.7
20220628110106 57 0 0.0 0.9 0.00 0.00 0.00 58 1025.6
20220628104604 57 0 0.0 2.6 0.00 0.00 0.00 58 1025.5
20220628103106 58 0 0.0 4.3 0.00 0.00 0.00 57 1025.5
20220628101607 58 231 0.9 3.5 0.00 0.00 0.00 55 1025.5
20220628100104 57 0 0.0 0.0 0.00 0.00 0.00 58 1025.5
20220628094604 57 0 0.0 0.0 0.00 0.00 0.00 59 1025.8
20220628093104 56 227 0.0 1.7 0.00 0.00 0.00 60 1025.9
20220628091606 56 0 0.0 0.0 0.00 0.00 0.00 62 1026.1
20220628090110 57 0 0.0 0.0 0.00 0.00 0.00 62 1026.3
20220628084605 57 0 0.0 0.0 0.00 0.00 0.00 64 1026.5
20220628083109 57 0 0.0 0.0 0.00 0.00 0.00 63 1026.6
20220628081608 58 0 0.0 0.0 0.00 0.00 0.00 61 1026.6
20220628080104 58 0 0.0 0.0 0.00 0.00 0.00 61 1026.7
20220628074611 59 0 0.0 0.0 0.00 0.00 0.00 60 1026.7
20220628073123 59 0 0.0 0.0 0.00 0.00 0.00 60 1027.0
20220628071608 60 0 0.0 1.7 0.00 0.00 0.00 60 1027.2
20220628070108 60 0 0.0 1.7 0.00 0.00 0.00 59 1027.3
20220628064607 60 217 0.9 2.6 0.00 0.00 0.00 59 1027.6
20220628063104 61 0 0.0 0.0 0.00 0.00 0.00 61 1027.7
20220628061607 62 0 0.0 0.9 0.00 0.00 0.00 60 1027.8
20220628060111 62 0 0.0 0.0 0.00 0.00 0.00 57 1028.2
20220628054610 63 0 0.0 0.9 0.00 0.00 0.00 56 1028.3
20220628053106 64 0 0.0 0.9 0.00 0.00 0.00 54 1028.5
20220628051606 65 205 0.0 0.9 0.00 0.00 0.00 52 1028.2
20220628050109 66 0 0.0 1.7 0.00 0.00 0.00 51 1028.1
20220628044609 66 344 0.9 3.5 0.00 0.00 0.00 49 1028.3
20220628043108 68 34 0.0 2.6 0.00 0.00 0.00 46 1028.1
20220628041603 69 9 0.9 7.0 0.00 0.00 0.00 44 1028.2